Regional Weather Roundup
Issued by NWS

Home | Current Version | Previous Version | Graphics & Text | Print | Product List | Glossary On
Versions: 1 2 3 4 5 6 7 8 9 10 11 12 13 14 15 16 17 18 19 20 21 22 23 24 25 26 27 28 29 30 31 32 33 34 35 36 37 38 39 40 41 42 43 44 45 46 47 48 49 50
586
ASUS45 KSLC 270910
RWRUT

UTAH REGIONAL WEATHER ROUNDUP
NATIONAL WEATHER SERVICE SALT LAKE CITY UT
300 AM MDT TUE JUN 27 2017

UTZ001>011-023>025-271000-

NORTHERN UTAH

CITY           SKY/WX    TMP DP  RH WIND       PRES   REMARKS
BRIGHAM CITY   CLEAR     79  33  18 N5G20     29.85S
HILL AFB       CLEAR     74  40  29 SE7       29.88F
LOGAN          PTCLDY    66  45  46 W9        29.88F
OGDEN          PTCLDY    73  43  33 S7        29.85F
SALT LAKE CITY MOCLDY    83  31  15 SW12      29.85R
TOOELE VALLEY  CLEAR     79  45  29 NW9       29.89R
WENDOVER         N/A     82  35  18 NW16G23   29.87
HEBER CITY     PTCLDY    50  41  71 SE3       29.98S
WEST JORDAN    CLEAR     79  41  26 SW6       29.90R

$$

UTZ011>015-024>027-271000-

CENTRAL/NORTHEAST UTAH

CITY           SKY/WX    TMP DP  RH WIND       PRES   REMARKS
PROVO AIRPORT  NOT AVBL
MOAB/CANYONLAN CLEAR     79  20  11 VRB5      29.90S
DELTA          CLEAR     70  12  11 S12       29.93F
PRICE          CLEAR     64  31  28 E6        30.01F
RICHFIELD      CLEAR     61  27  27 CALM      30.02
VERNAL         CLEAR     67  39  35 W9        29.97S

$$

UTZ013>016-019>022-027-271000-

SOUTHERN UTAH

CITY           SKY/WX    TMP DP  RH WIND       PRES   REMARKS
BRYCE CANYON   CLOUDY    40  19  43 N3        30.23F
CEDAR CITY     CLEAR     67  10  11 S9        30.03F
MILFORD        CLEAR     69  14  12 S15       29.96F
ST GEORGE      MOSUNNY   77  15   9 E7        29.85F
HANKSVILLE     CLEAR     77  19  11 CALM      29.94S
KANAB          CLEAR     55  19  24 NE6       30.08
BLANDING       CLEAR     65  32  29 NE6       30.16S

$$

REGIONAL REPORTS     COLORADO/ARIZONA

CITY           SKY/WX    TMP DP  RH WIND       PRES   REMARKS
CRAIG, CO      CLOUDY    54  38  54 VRB5      30.06F
GRAND JUNCTION MOCLDY    72  30  21 E6        29.94F
RIFLE, CO      CLEAR     61  29  29 S3        30.04F
MONTROSE, CO   PTCLDY    70  32  24 SE6       30.05F
CORTEZ, CO     CLEAR     73  38  27 NE8       30.12S
COLORADO CITY    N/A     54  21  28 SE3       30.05F
PAGE, AZ       CLEAR     81  24  12 SW6       29.95F
GRAND CANYON   CLEAR     47  22  37 CALM      30.20F
KINGMAN, AZ    CLEAR     77  24  14 S10       29.94F
FLAGSTAFF, AZ  CLEAR     52  26  36 CALM      30.25F

$$

REGIONAL REPORTS    NEVADA/IDAHO/WYOMING

CITY           SKY/WX    TMP DP  RH WIND       PRES   REMARKS
LAS VEGAS, NV  CLEAR     89  13   6 S12G18    29.76F
ELY, NY        PTCLDY    65  31  28 NW6       30.10R
ELKO, NV       MOCLDY    63  32  31 SW9       30.04S
POCATELLO, ID  PTCLDY    69  49  48 E7        29.92S
BURLEY, ID     MOCLDY    64  54  69 W7        29.89S
FORT BRIDGER,    N/A     63  36  36 S12       30.09F
EVANSTON, WY   CLOUDY    62  37  39 E5        30.06F
ROCK SPRINGS,  CLOUDY    68  33  27 SE8       30.05F
KEMMERER, WY     N/A     63  32  31 CALM      30.09F

$$




USA.gov is the U.S. government's official web portal to all federal, state and local government web resources and services.